Showing default

COSMOS 2090, 20735

Orbit data source: Space-Track

COSMOS 2090, 20735 is a payload satellite owned by UNKS (CIS) in LEO that was launched on Wed, 08 Aug 1990 UTC via a TSIKLON-3 launch vehicle from the Plesetsk Missile And Space Complex (PKMTR). Payload-class satellites include a variety of spacecraft equipped with specific instruments for various scientific and technological missions. These include communications satellites like Starlink; space stations such as the ISS; scientific satellites like the Hubble; Earth observation satellites from companies like Planet Labs, Umbra, and HawkEye 360; GPS; miniature CubeSats for education and research; and military/defense satellites.

Loading next visibility...
Identifier
20735, 1990-070A
Orbit
LEO
Last TLE update
13 hours ago
Origin
Manufacturer
NPO PM
Mission
Defense Communications
Bus & Motor
STRELA-3, Unknown motor
Mass
225 kg wet, 225 kg dry
Launch date (UTC)
1990-08-08 (35 years ago)
Launch vehicle
TSIKLON-3
Launch site
Plesetsk Missile And Space Complex (PKMTR)
Object type
Payload
Rocket body
Debris
Shape & HBR
Cyl, 1.6 m
Radar Cross Section
1.257 m², Large (>1 m²)

Expand to show TLE details & history

TLE from 13 hours ago
0 COSMOS 2090
1 20735U 90070A   25183.95154589  .00000038  00000-0  14513-3 0  9996
2 20735  82.5667 136.6719 0014939 135.1003 287.1845 12.65352929611765
Epoch: 2025-07-02T22:50Z
TLE epoch observation values (Epoch: 2025-07-02T22:50:13.564Z)
Latitude
61.31092°
Longitude
-113.38651°
Altitude
1,407.949 km
Speed
7.163 km/s
True Right ascension
10h 01m 34s
True Declination
61° 10' 41"
Sunlit
Object was in daylight at epoch
Visualization orbit readout
Latitude
-1.91461°
Longitude
-127.70514°
Altitude
1,412.238 km
Speed
7.15 km/s
Apparent Right ascension
10h 01m 21s
Apparent Declination
-19° 45' 30"
Sunlit
Object is in daylight
Visualization observer readout
Local Sidereal Time
23:33:33
Azimuth
51.191° ENE
Elevation
-61.777°
Doppler factor
1
Orbital elements
Apogee altitude
1,409.862 km
Perigee altitude
1,386.628 km
Semi-major axis
7,776.382 km
Eccentricity
0.00149
Inclination
82.5667°
RAAN
136.6719°
Arg. of periapsis
135.1003°
True anomaly
Unknown
Mean anomaly
287.1845°
Eccentric anomaly
Unknown
Mean motion
3.16502 °/min
Orbital period
113.74 mins
BSTAR
0.00014513
Loading maneuver chart data...
Loading SW <> Apogee altitude chart data...
Loading historical data...
Loading historical data...
Loading historical data...
Loading historical data...
Loading historical data...
Loading historical data...
Loading historical data...

COSMOS 2090 Visibility forecast

Observer location: undefined°, undefined°

Span
Click to sort rows by Start time (UTC) header in descending order
Start Az.
Max El. time (UTC)
Max El. Az.
Max El.
End time (UTC)
End Az.
5 mins2025-07-03 19:34:00.378Z93.007° ESE2025-07-03 19:36:00.378Z78.053° E12.699°2025-07-03 19:39:00.378Z55.634° ENE
14 mins2025-07-03 21:23:00.378Z177.676° S2025-07-03 21:30:00.378Z62.983° ENE44.131°2025-07-03 21:37:00.378Z10.831° NNE
10 mins2025-07-03 23:21:00.378Z258.431° W2025-07-03 23:25:00.378Z292.459° WNW19.812°2025-07-03 23:31:00.378Z340.208° N
12 mins2025-07-04 07:24:00.378Z20.368° NNE2025-07-04 07:29:00.378Z67.726° E26.723°2025-07-04 07:36:00.378Z128.307° SE
14 mins2025-07-04 09:18:00.378Z339.967° N2025-07-04 09:24:00.378Z276.899° WNW39.181°2025-07-04 09:32:00.378Z195.548° SSW
|